map of TUR home
TUR - Airport
Location
City:  Tucuruí, Pará, Brazil
ICAO:SBTU
IATA:TUR

Details
Type:Airport (Aerodrome, Airfield)
Latitude:3°47'10"S (-3.786007)
Longitude:49°43'13"W (-49.720266)
Datum:WGS 1984
Elevation:830 ft (253 m)
Variation:20.15°W (WMM2015 magnetic declination)
-0.05° annual change
Runways:1
Longest:6562 × 148 ft (2000 × 45 m), paved

Time
Time Zone:UTC-3
Local Time:

Weather
METAR:SBTU 082115Z 25004KT 9999 FEW035TCU 29/24 Q1010

Related Locations
Nearby:
Farthest:OTI: 12260 mi / 19731 km
Pitu, Morotai Island, MA, ID

Find:

   beyond  
but within

Other Information
Maps:
NOTAMs:
Links:
Sources:

  
flag of Brazil
flag of Pará
  

Sectional Chart

Flight Planning
at skyvector.com

Satellite Image

Google Maps Satellite view

 

Copyright © 2004-2016 Karl L. Swartz. All rights reserved.
The Great Circle Mapper name and logo are trademarks of the Great Circle Mapper.
All other trademarks mentioned herein belong to their respective owners.
Please see credits for attibutions and further copyright information.

  Follow gcmap on Facebook Follow gcmap on Twitter Follow gcmap on Google+ GCmap on LinkedIn

hCard Microformat

Geo Microformat